map of ICN home
ICN - Airport
Location
City:  Seoul, Republic of Korea (South Korea)
Name:Incheon International Airport
ICAO:RKSI
IATA:ICN

Details
Type:Airport (Aerodrome, Airfield)
Use:Public/Civil, International (customs port of entry)
Latitude:3728'09"N (37.469075)
Longitude:12627'02"E (126.450517)
Datum:WGS 1984
Elevation:23 ft (7 m)
Variation:8.28W (WMM2015 magnetic declination)
-0.07 annual change
Runways:2
Longest:12303 × 197 ft (3750 × 60 m), paved

Time
Time Zone:UTC+9
Local Time:

Weather
METAR:RKSI 202000Z 15001KT CAVOK M06/M15 Q1030 NOSIG
TAF:RKSI 201700Z 2018/2124 07005KT CAVOK TNM08/2022Z TX02/2106Z TNM02/2122Z
BECMG 2103/2104 26005KT
BECMG 2112/2113 07005KT 6000 FEW010 SCT030 BKN120
BECMG 2121/2122 10007KT 2800 -RASN SCT010 BKN025 OVC080

Related Locations
Nearby:
Farthest:SST: 12255 mi / 19722 km
Santa Teresita, B, AR

Find:

   beyond  
but within

Other Information
Maps:
NOTAMs:
Links:
Sources:

  
flag of Republic of Korea (South Korea)   

Sectional Chart

Flight Planning
at skyvector.com

Satellite Image

Google Maps Satellite view

 

Copyright © 2004-2017 Karl L. Swartz. All rights reserved.
The Great Circle Mapper name and logo are trademarks of the Great Circle Mapper.
All other trademarks mentioned herein belong to their respective owners.
Please see credits for attibutions and further copyright information.

  Follow gcmap on Facebook Follow gcmap on Twitter Follow gcmap on Google+ GCmap on LinkedIn

hCard Microformat

Geo Microformat